• Em Portugal
  • Lista de países
  • Para 7 dias
  • Temperatura da água
  • Mapas de satélite
  • Mapa do tempo
  • Widgets de tempo
  • user-avatar
    Iniciar Sessão

    Previsão horária em Jambol

    Hoje, 24 Setembro, Segunda-feira

    Tempo Temperatura Precipitação Vento Pressão Humidade
    00:00 +21°C° 0 mm 2 m/s 752 mmHg 75%
    01:00 +20°C° 0 mm 2 m/s 752 mmHg 77%
    02:00 +20°C° 0 mm 2 m/s 751 mmHg 79%
    03:00 +20°C° 0 mm 2 m/s 750 mmHg 78%
    04:00 +21°C° 0 mm 1 m/s 750 mmHg 77%
    05:00 +20°C° 0 mm 1 m/s 750 mmHg 76%
    06:00 +21°C° 0 mm 2 m/s 749 mmHg 69%
    07:00 +23°C° 0 mm 2 m/s 749 mmHg 62%
    08:00 +24°C° 0 mm 2 m/s 748 mmHg 53%
    09:00 +27°C° 0 mm 3 m/s 748 mmHg 46%
    10:00 +29°C° 0 mm 3 m/s 748 mmHg 39%
    11:00 +32°C° 0 mm 4 m/s 748 mmHg 31%
    12:00 +33°C° 0 mm 4 m/s 747 mmHg 29%
    13:00 +34°C° 0 mm 4 m/s 747 mmHg 27%
    14:00 +35°C° 0 mm 4 m/s 746 mmHg 24%
    15:00 +35°C° 0 mm 5 m/s 746 mmHg 27%
    16:00 +34°C° 0 mm 5 m/s 746 mmHg 29%
    17:00 +33°C° 0 mm 6 m/s 746 mmHg 31%
    18:00 +28°C° 0 mm 7 m/s 747 mmHg 36%
    19:00 +24°C° 0 mm 8 m/s 748 mmHg 41%
    20:00 +21°C° 0 mm 10 m/s 749 mmHg 46%
    21:00 +18°C° 0 mm 9 m/s 750 mmHg 48%
    22:00 +17°C° 0 mm 9 m/s 751 mmHg 49%
    23:00 +16°C° 0 mm 8 m/s 752 mmHg 50%

    Amanhã, 25 Setembro, Terça-feira

    Tempo Temperatura Precipitação Vento Pressão Humidade
    00:00 +15°C° 0.1 mm 8 m/s 753 mmHg 52%
    01:00 +15°C° 0.1 mm 7 m/s 754 mmHg 53%
    02:00 +14°C° 0.1 mm 7 m/s 754 mmHg 54%
    03:00 +13°C° 0.1 mm 6 m/s 755 mmHg 54%
    04:00 +13°C° 0.1 mm 6 m/s 755 mmHg 53%
    05:00 +13°C° 0.1 mm 5 m/s 755 mmHg 53%
    06:00 +13°C° 0 mm 5 m/s 756 mmHg 52%
    07:00 +13°C° 0 mm 5 m/s 756 mmHg 50%
    08:00 +13°C° 0 mm 5 m/s 757 mmHg 49%
    09:00 +14°C° 0 mm 5 m/s 757 mmHg 43%
    10:00 +16°C° 0 mm 5 m/s 757 mmHg 38%
    11:00 +17°C° 0 mm 5 m/s 757 mmHg 33%
    12:00 +19°C° 0 mm 6 m/s 757 mmHg 29%
    13:00 +20°C° 0 mm 6 m/s 757 mmHg 26%
    14:00 +20°C° 0 mm 6 m/s 757 mmHg 23%
    15:00 +20°C° 0 mm 6 m/s 757 mmHg 23%
    16:00 +19°C° 0 mm 6 m/s 757 mmHg 24%
    17:00 +19°C° 0 mm 6 m/s 757 mmHg 25%
    18:00 +16°C° 0 mm 5 m/s 758 mmHg 32%
    19:00 +15°C° 0 mm 4 m/s 758 mmHg 40%
    20:00 +13°C° 0 mm 3 m/s 759 mmHg 48%
    21:00 +12°C° 0 mm 3 m/s 759 mmHg 50%
    22:00 +12°C° 0 mm 3 m/s 760 mmHg 51%
    23:00 +12°C° 0 mm 2 m/s 760 mmHg 53%

    Depois de amanhã, 26 Setembro, Quarta-feira

    Tempo Temperatura Precipitação Vento Pressão Humidade
    00:00 +11°C° 0 mm 3 m/s 761 mmHg 51%
    01:00 +10°C° 0 mm 3 m/s 761 mmHg 50%
    02:00 +10°C° 0 mm 3 m/s 761 mmHg 49%
    03:00 +9°C° 0 mm 3 m/s 761 mmHg 51%
    04:00 +8°C° 0 mm 4 m/s 761 mmHg 52%
    05:00 +7°C° 0 mm 4 m/s 761 mmHg 54%
    06:00 +8°C° 0 mm 5 m/s 762 mmHg 51%
    07:00 +9°C° 0 mm 5 m/s 762 mmHg 49%
    08:00 +10°C° 0 mm 6 m/s 762 mmHg 46%
    09:00 +11°C° 0 mm 7 m/s 763 mmHg 42%
    10:00 +14°C° 0 mm 7 m/s 763 mmHg 37%
    11:00 +15°C° 0 mm 8 m/s 763 mmHg 32%
    12:00 +16°C° 0 mm 8 m/s 762 mmHg 31%
    13:00 +16°C° 0 mm 8 m/s 762 mmHg 29%
    14:00 +17°C° 0 mm 8 m/s 762 mmHg 28%
    15:00 +16°C° 0 mm 8 m/s 762 mmHg 29%
    16:00 +16°C° 0 mm 8 m/s 761 mmHg 30%
    17:00 +15°C° 0 mm 7 m/s 761 mmHg 32%
    18:00 +14°C° 0 mm 7 m/s 762 mmHg 34%
    19:00 +13°C° 0 mm 6 m/s 762 mmHg 37%
    20:00 +10°C° 0 mm 5 m/s 762 mmHg 40%
    21:00 +10°C° 0 mm 5 m/s 763 mmHg 42%
    22:00 +9°C° 0 mm 5 m/s 763 mmHg 44%
    23:00 +8°C° 0 mm 4 m/s 763 mmHg 45%

    27 Setembro, Quinta-feira

    Tempo Temperatura Precipitação Vento Pressão Humidade
    00:00 +8°C° 0 mm 4 m/s 763 mmHg 47%
    01:00 +7°C° 0 mm 4 m/s 762 mmHg 48%
    02:00 +7°C° 0 mm 4 m/s 762 mmHg 50%
    03:00 +7°C° 0 mm 4 m/s 762 mmHg 51%
    04:00 +6°C° 0 mm 4 m/s 762 mmHg 52%
    05:00 +6°C° 0 mm 4 m/s 761 mmHg 53%
    06:00 +7°C° 0 mm 5 m/s 761 mmHg 49%
    07:00 +8°C° 0 mm 5 m/s 761 mmHg 45%
    08:00 +9°C° 0 mm 6 m/s 761 mmHg 42%
    09:00 +11°C° 0 mm 6 m/s 761 mmHg 37%
    10:00 +14°C° 0 mm 7 m/s 761 mmHg 33%
    11:00 +15°C° 0 mm 7 m/s 760 mmHg 29%
    12:00 +16°C° 0 mm 7 m/s 760 mmHg 28%
    13:00 +17°C° 0 mm 7 m/s 759 mmHg 27%
    14:00 +18°C° 0 mm 7 m/s 759 mmHg 26%
    15:00 +18°C° 0 mm 7 m/s 758 mmHg 28%
    16:00 +17°C° 0 mm 6 m/s 758 mmHg 29%
    17:00 +17°C° 0 mm 6 m/s 757 mmHg 30%
    18:00 +15°C° 0 mm 5 m/s 758 mmHg 35%
    19:00 +13°C° 0 mm 4 m/s 758 mmHg 40%
    20:00 +11°C° 0 mm 4 m/s 758 mmHg 46%
    21:00 +11°C° 0 mm 3 m/s 757 mmHg 47%
    22:00 +10°C° 0 mm 3 m/s 757 mmHg 49%
    23:00 +10°C° 0 mm 3 m/s 757 mmHg 51%

    28 Setembro, Sexta-feira

    Tempo Temperatura Precipitação Vento Pressão Humidade
    00:00 +10°C° 0 mm 3 m/s 757 mmHg 50%
    01:00 +9°C° 0 mm 3 m/s 756 mmHg 50%
    02:00 +9°C° 0 mm 3 m/s 756 mmHg 50%
    03:00 +9°C° 0 mm 3 m/s 756 mmHg 50%
    04:00 +9°C° 0 mm 3 m/s 756 mmHg 50%
    05:00 +9°C° 0 mm 3 m/s 755 mmHg 50%
    06:00 +10°C° 0 mm 3 m/s 755 mmHg 47%
    07:00 +12°C° 0 mm 3 m/s 755 mmHg 44%
    08:00 +13°C° 0 mm 4 m/s 755 mmHg 41%
    09:00 +15°C° 0 mm 4 m/s 755 mmHg 39%
    10:00 +18°C° 0 mm 4 m/s 755 mmHg 38%
    11:00 +20°C° 0 mm 5 m/s 754 mmHg 36%
    12:00 +21°C° 0 mm 5 m/s 754 mmHg 35%
    13:00 +22°C° 0 mm 5 m/s 753 mmHg 33%
    14:00 +23°C° 0 mm 5 m/s 753 mmHg 32%
    15:00 +22°C° 0 mm 5 m/s 752 mmHg 35%
    16:00 +22°C° 0 mm 4 m/s 752 mmHg 38%
    17:00 +21°C° 0 mm 4 m/s 752 mmHg 41%
    18:00 +19°C° 0 mm 4 m/s 752 mmHg 50%
    19:00 +18°C° 0 mm 3 m/s 752 mmHg 58%
    20:00 +16°C° 0 mm 2 m/s 752 mmHg 66%
    21:00 +15°C° 0 mm 2 m/s 752 mmHg 69%
    22:00 +15°C° 0 mm 2 m/s 752 mmHg 72%
    23:00 +14°C° 0 mm 2 m/s 752 mmHg 75%

    29 Setembro, Sábado

    Tempo Temperatura Precipitação Vento Pressão Humidade
    00:00 +14°C° 0 mm 1 m/s 751 mmHg 75%
    01:00 +14°C° 0 mm 1 m/s 751 mmHg 76%
    02:00 +14°C° 0 mm 1 m/s 751 mmHg 76%
    03:00 +14°C° 0 mm 1 m/s 751 mmHg 76%
    04:00 +14°C° 0 mm 1 m/s 751 mmHg 76%
    05:00 +13°C° 0 mm 1 m/s 751 mmHg 76%
    06:00 +14°C° 0.3 mm 1 m/s 751 mmHg 73%
    07:00 +15°C° 0.3 mm 1 m/s 751 mmHg 70%
    08:00 +16°C° 0.3 mm 1 m/s 751 mmHg 67%
    09:00 +18°C° 0.1 mm 1 m/s 751 mmHg 64%
    10:00 +19°C° 0.1 mm 1 m/s 751 mmHg 61%
    11:00 +20°C° 0.1 mm 1 m/s 751 mmHg 58%
    12:00 +21°C° 0 mm 1 m/s 750 mmHg 56%
    13:00 +21°C° 0 mm 1 m/s 750 mmHg 53%
    14:00 +22°C° 0 mm 1 m/s 750 mmHg 51%
    15:00 +22°C° 0 mm 1 m/s 750 mmHg 51%
    16:00 +21°C° 0 mm 2 m/s 750 mmHg 51%
    17:00 +21°C° 0 mm 2 m/s 750 mmHg 51%
    18:00 +20°C° 0 mm 1 m/s 750 mmHg 55%
    19:00 +19°C° 0 mm 1 m/s 750 mmHg 59%
    20:00 +16°C° 0 mm 1 m/s 751 mmHg 64%
    21:00 +16°C° 0 mm 1 m/s 751 mmHg 64%
    22:00 +16°C° 0 mm 1 m/s 751 mmHg 65%
    23:00 +16°C° 0 mm 1 m/s 751 mmHg 65%
    Mostrar mais